TimeMDT,TemperatureF,Dew PointF,Humidity,Sea Level PressureIn,VisibilityMPH,Wind Direction,Wind SpeedMPH,Gust SpeedMPH,PrecipitationIn,Events,Conditions,WindDirDegrees,DateUTC
12:53 AM,57.9,33.1,39,29.87,10.0,NE,3.5,-,N/A,,Clear,40,2012-10-11 06:53:00
1:53 AM,57.0,32.0,39,29.86,10.0,NNE,3.5,-,N/A,,Clear,20,2012-10-11 07:53:00
2:53 AM,57.0,36.0,45,29.85,10.0,WNW,3.5,-,N/A,,Clear,290,2012-10-11 08:53:00
3:53 AM,55.9,33.1,42,29.84,10.0,NW,4.6,-,N/A,,Clear,320,2012-10-11 09:53:00
4:53 AM,57.0,33.1,40,29.85,10.0,Calm,Calm,-,N/A,,Clear,0,2012-10-11 10:53:00
5:53 AM,54.0,33.1,45,29.87,10.0,Calm,Calm,-,N/A,,Clear,0,2012-10-11 11:53:00
6:53 AM,54.0,33.1,45,29.92,10.0,SW,5.8,-,N/A,,Partly Cloudy,230,2012-10-11 12:53:00
7:53 AM,55.0,33.1,43,29.95,10.0,West,5.8,-,N/A,,Scattered Clouds,260,2012-10-11 13:53:00
8:53 AM,57.9,34.0,41,29.96,10.0,Calm,Calm,-,N/A,,Mostly Cloudy,0,2012-10-11 14:53:00
9:53 AM,66.9,36.0,32,29.95,10.0,NNW,3.5,-,N/A,,Overcast,330,2012-10-11 15:53:00
10:53 AM,70.0,37.0,30,29.96,10.0,WSW,4.6,-,N/A,,Mostly Cloudy,240,2012-10-11 16:53:00
11:53 AM,62.1,54.0,75,29.99,6.0,Calm,Calm,-,0.03,Rain,Light Rain,0,2012-10-11 17:53:00
12:53 PM,64.9,48.9,56,29.97,10.0,Calm,Calm,-,0.00,Rain,Light Rain,0,2012-10-11 18:53:00
1:53 PM,69.1,46.9,45,29.96,10.0,Calm,Calm,-,0.01,,Mostly Cloudy,0,2012-10-11 19:53:00
2:53 PM,73.0,48.9,42,29.90,10.0,NE,8.1,-,0.00,,Partly Cloudy,50,2012-10-11 20:53:00
4:53 PM,77.0,46.9,34,29.87,10.0,ENE,8.1,-,N/A,,Clear,70,2012-10-11 22:53:00
5:53 PM,77.0,46.0,33,29.86,10.0,East,5.8,-,N/A,,Clear,80,2012-10-11 23:53:00
7:53 PM,64.0,46.9,54,29.91,10.0,ENE,5.8,-,N/A,,Clear,60,2012-10-12 01:53:00
8:53 PM,63.0,46.9,56,29.92,10.0,ENE,9.2,-,N/A,,Clear,70,2012-10-12 02:53:00
9:53 PM,60.1,48.0,64,29.92,10.0,ENE,4.6,-,N/A,,Clear,70,2012-10-12 03:53:00
10:53 PM,59.0,48.0,67,29.91,10.0,ESE,5.8,-,N/A,,Clear,120,2012-10-12 04:53:00
11:53 PM,55.9,46.9,72,29.94,10.0,Calm,Calm,-,N/A,,Clear,0,2012-10-12 05:53:00